Torna al catalogo

CZ-2C R/B

AttivoVLEO
NORAD 58754·ROCKET BODY·🇨🇳 China

Lanciato Jan 9, 2024 da Xichang Satellite Launch Center

Loading…

Prossimi Passaggi (prossime 24 ore)

TLE

AggiornatoSource: Space-Track

Epoca: Sep 14, 2026, 17:33 UTC

1 58754U 24007B   26257.73180700  .00015485  00000-0  27975-3 0  9996
2 58754  29.0104  38.9705 0057662 267.9285  91.4722 15.46212467150058

Traccia CZ-2C R/B in tempo reale con AllMySat

Download on the App Store